When you browse on this site, cookies collect data to enhance your experience and personalize the content and advertising you see.
Visit our Privacy Policy to learn more. By continuing to use the site, you agree to this use of cookies and data.
  • In United Kingdom
  • List of Countries
  • For 7 days
  • Water Temperature
  • Weather Map
  • Weather Widgets
  • user-avatar
    Login

    Hourly Weather Glasgow

    Today, 3 June, Wednesday

    Time Temperature Precipitation Wind Pressure Humidity
    00:00 +7°C° 0.3 mm 8 mps 761 mmHg 94%
    01:00 +6°C° 0 mm 8 mps 761 mmHg 93%
    02:00 +6°C° 0 mm 8 mps 760 mmHg 91%
    03:00 +6°C° 0 mm 8 mps 760 mmHg 90%
    04:00 +6°C° 0 mm 8 mps 760 mmHg 90%
    05:00 +6°C° 0 mm 8 mps 760 mmHg 89%
    06:00 +6°C° 0 mm 9 mps 760 mmHg 89%
    07:00 +7°C° 0.1 mm 9 mps 760 mmHg 87%
    08:00 +7°C° 0.1 mm 9 mps 760 mmHg 86%
    09:00 +8°C° 0.1 mm 9 mps 760 mmHg 84%
    10:00 +8°C° 0.1 mm 9 mps 760 mmHg 86%
    11:00 +8°C° 0.1 mm 9 mps 759 mmHg 87%
    12:00 +9°C° 0.1 mm 8 mps 759 mmHg 88%
    13:00 +9°C° 0.2 mm 8 mps 759 mmHg 89%
    14:00 +7°C° 0.2 mm 9 mps 759 mmHg 90%
    15:00 +7°C° 0.2 mm 9 mps 759 mmHg 91%
    16:00 +7°C° 0.1 mm 8 mps 758 mmHg 88%
    17:00 +7°C° 0.1 mm 8 mps 758 mmHg 85%
    18:00 +7°C° 0.1 mm 8 mps 758 mmHg 83%
    19:00 +6°C° 0 mm 7 mps 758 mmHg 84%
    20:00 +5°C° 0 mm 6 mps 758 mmHg 86%
    21:00 +4°C° 0 mm 6 mps 758 mmHg 88%
    22:00 +4°C° 0 mm 6 mps 757 mmHg 87%
    23:00 +4°C° 0 mm 6 mps 757 mmHg 87%

    Tomorrow, 4 June, Thursday

    Time Temperature Precipitation Wind Pressure Humidity
    00:00 +5°C° 0 mm 5 mps 756 mmHg 87%
    01:00 +5°C° 0 mm 5 mps 756 mmHg 86%
    02:00 +5°C° 0 mm 5 mps 755 mmHg 86%
    03:00 +5°C° 0 mm 5 mps 754 mmHg 85%
    04:00 +5°C° 0 mm 5 mps 754 mmHg 83%
    05:00 +6°C° 0 mm 5 mps 754 mmHg 80%
    06:00 +6°C° 0 mm 5 mps 753 mmHg 78%
    07:00 +7°C° 0 mm 5 mps 753 mmHg 74%
    08:00 +8°C° 0 mm 5 mps 752 mmHg 70%
    09:00 +10°C° 0 mm 4 mps 752 mmHg 66%
    10:00 +10°C° 0.1 mm 4 mps 752 mmHg 70%
    11:00 +10°C° 0.1 mm 4 mps 751 mmHg 73%
    12:00 +10°C° 0.1 mm 4 mps 751 mmHg 76%
    13:00 +10°C° 0.2 mm 4 mps 751 mmHg 76%
    14:00 +10°C° 0.2 mm 4 mps 750 mmHg 75%
    15:00 +10°C° 0.2 mm 5 mps 750 mmHg 74%
    16:00 +9°C° 0.1 mm 5 mps 749 mmHg 73%
    17:00 +9°C° 0.1 mm 6 mps 749 mmHg 72%
    18:00 +8°C° 0.1 mm 6 mps 749 mmHg 71%
    19:00 +7°C° 0 mm 6 mps 749 mmHg 76%
    20:00 +5°C° 0 mm 6 mps 749 mmHg 81%
    21:00 +4°C° 0 mm 6 mps 749 mmHg 87%
    22:00 +3°C° 0 mm 6 mps 748 mmHg 87%
    23:00 +3°C° 0 mm 7 mps 748 mmHg 88%

    Day after tomorrow, 5 June, Friday

    Time Temperature Precipitation Wind Pressure Humidity
    00:00 +3°C° 0 mm 7 mps 748 mmHg 89%
    01:00 +2°C° 0 mm 8 mps 747 mmHg 88%
    02:00 +2°C° 0 mm 8 mps 747 mmHg 88%
    03:00 +2°C° 0 mm 9 mps 746 mmHg 88%
    04:00 +2°C° 0.1 mm 9 mps 746 mmHg 85%
    05:00 +3°C° 0.1 mm 10 mps 745 mmHg 83%
    06:00 +4°C° 0.1 mm 11 mps 745 mmHg 80%
    07:00 +4°C° 0.1 mm 11 mps 744 mmHg 78%
    08:00 +5°C° 0.1 mm 12 mps 744 mmHg 75%
    09:00 +7°C° 0.1 mm 12 mps 743 mmHg 72%
    10:00 +7°C° 0.1 mm 13 mps 743 mmHg 68%
    11:00 +8°C° 0.1 mm 13 mps 742 mmHg 65%
    12:00 +8°C° 0.1 mm 14 mps 742 mmHg 61%
    13:00 +8°C° 0.1 mm 14 mps 741 mmHg 64%
    14:00 +6°C° 0.1 mm 14 mps 740 mmHg 67%
    15:00 +6°C° 0.1 mm 15 mps 740 mmHg 70%
    16:00 +5°C° 0.5 mm 15 mps 739 mmHg 76%
    17:00 +5°C° 0.5 mm 15 mps 739 mmHg 82%
    18:00 +5°C° 0.5 mm 15 mps 738 mmHg 88%
    19:00 +5°C° 1.3 mm 14 mps 738 mmHg 90%
    20:00 +5°C° 1.3 mm 12 mps 738 mmHg 92%
    21:00 +6°C° 1.3 mm 11 mps 738 mmHg 93%
    22:00 +6°C° 0.2 mm 10 mps 738 mmHg 93%
    23:00 +6°C° 0.2 mm 9 mps 737 mmHg 93%

    6 June, Saturday

    Time Temperature Precipitation Wind Pressure Humidity
    00:00 +8°C° 0.2 mm 7 mps 737 mmHg 93%
    01:00 +6°C° 0.2 mm 8 mps 736 mmHg 93%
    02:00 +6°C° 0.2 mm 9 mps 736 mmHg 94%
    03:00 +6°C° 0.2 mm 10 mps 736 mmHg 94%
    04:00 +6°C° 0.2 mm 11 mps 736 mmHg 92%
    05:00 +7°C° 0.2 mm 12 mps 736 mmHg 90%
    06:00 +7°C° 0.2 mm 13 mps 736 mmHg 88%
    07:00 +8°C° 0.4 mm 13 mps 736 mmHg 88%
    08:00 +8°C° 0.4 mm 13 mps 736 mmHg 88%
    09:00 +8°C° 0.4 mm 13 mps 736 mmHg 89%
    10:00 +9°C° 0.6 mm 13 mps 737 mmHg 88%
    11:00 +9°C° 0.6 mm 13 mps 737 mmHg 87%
    12:00 +9°C° 0.6 mm 13 mps 737 mmHg 87%
    13:00 +9°C° 0.9 mm 13 mps 738 mmHg 88%
    14:00 +9°C° 0.9 mm 12 mps 739 mmHg 90%
    15:00 +9°C° 0.9 mm 12 mps 739 mmHg 91%
    16:00 +9°C° 0.3 mm 11 mps 740 mmHg 90%
    17:00 +9°C° 0.3 mm 11 mps 741 mmHg 89%
    18:00 +9°C° 0.3 mm 10 mps 742 mmHg 88%
    19:00 +9°C° 0.1 mm 10 mps 742 mmHg 90%
    20:00 +8°C° 0.1 mm 9 mps 743 mmHg 92%
    21:00 +7°C° 0.1 mm 8 mps 744 mmHg 94%
    22:00 +7°C° 0.1 mm 8 mps 745 mmHg 95%
    23:00 +8°C° 0.1 mm 7 mps 745 mmHg 95%

    7 June, Sunday

    Time Temperature Precipitation Wind Pressure Humidity
    00:00 +7°C° 0.1 mm 6 mps 746 mmHg 96%
    01:00 +7°C° 0 mm 6 mps 746 mmHg 96%
    02:00 +7°C° 0 mm 6 mps 747 mmHg 96%
    03:00 +7°C° 0 mm 6 mps 747 mmHg 96%
    04:00 +8°C° 0 mm 6 mps 748 mmHg 95%
    05:00 +9°C° 0 mm 6 mps 748 mmHg 94%
    06:00 +10°C° 0 mm 6 mps 749 mmHg 93%
    07:00 +10°C° 0 mm 6 mps 749 mmHg 90%
    08:00 +11°C° 0 mm 6 mps 750 mmHg 87%
    09:00 +13°C° 0 mm 6 mps 750 mmHg 84%
    10:00 +11°C° 0.7 mm 6 mps 750 mmHg 88%
    11:00 +11°C° 0.7 mm 6 mps 751 mmHg 91%
    12:00 +11°C° 0.7 mm 6 mps 751 mmHg 95%
    13:00 +10°C° 0.6 mm 7 mps 751 mmHg 94%
    14:00 +10°C° 0.6 mm 8 mps 751 mmHg 94%
    15:00 +9°C° 0.6 mm 10 mps 751 mmHg 94%
    16:00 +9°C° 0.1 mm 10 mps 752 mmHg 93%
    17:00 +8°C° 0.1 mm 10 mps 752 mmHg 92%
    18:00 +8°C° 0.1 mm 10 mps 752 mmHg 92%
    19:00 +8°C° 0.2 mm 10 mps 752 mmHg 92%
    20:00 +8°C° 0.2 mm 10 mps 753 mmHg 92%
    21:00 +8°C° 0.2 mm 9 mps 753 mmHg 93%
    22:00 +8°C° 0.1 mm 9 mps 753 mmHg 93%
    23:00 +8°C° 0.1 mm 9 mps 753 mmHg 93%

    8 June, Monday

    Time Temperature Precipitation Wind Pressure Humidity
    00:00 +9°C° 0.1 mm 8 mps 753 mmHg 93%
    01:00 +9°C° 0.2 mm 7 mps 754 mmHg 94%
    02:00 +9°C° 0.2 mm 7 mps 754 mmHg 95%
    03:00 +10°C° 0.2 mm 6 mps 754 mmHg 96%
    04:00 +10°C° 0.2 mm 6 mps 754 mmHg 96%
    05:00 +10°C° 0.2 mm 5 mps 754 mmHg 96%
    06:00 +10°C° 0.2 mm 5 mps 754 mmHg 96%
    07:00 +10°C° 0.1 mm 5 mps 755 mmHg 93%
    08:00 +11°C° 0.1 mm 6 mps 755 mmHg 90%
    09:00 +12°C° 0.1 mm 7 mps 755 mmHg 88%
    10:00 +14°C° 0.2 mm 7 mps 756 mmHg 87%
    11:00 +14°C° 0.2 mm 7 mps 756 mmHg 86%
    12:00 +14°C° 0.2 mm 7 mps 756 mmHg 86%
    13:00 +14°C° 0.5 mm 7 mps 756 mmHg 86%
    14:00 +14°C° 0.5 mm 6 mps 756 mmHg 87%
    15:00 +14°C° 0.5 mm 6 mps 756 mmHg 88%
    16:00 +13°C° 0.3 mm 6 mps 756 mmHg 87%
    17:00 +13°C° 0.3 mm 6 mps 756 mmHg 87%
    18:00 +13°C° 0.3 mm 5 mps 756 mmHg 86%
    19:00 +12°C° 0.1 mm 5 mps 756 mmHg 90%
    20:00 +10°C° 0.1 mm 5 mps 757 mmHg 93%
    21:00 +9°C° 0.1 mm 5 mps 757 mmHg 96%
    22:00 +9°C° 0.2 mm 5 mps 757 mmHg 96%
    23:00 +10°C° 0.2 mm 4 mps 757 mmHg 96%
    Show more